Location: Newark
(34.4697°S, 57.8467°W)
Time: 13:25:03
(UTC+00:00)

N. Korean satellite - Pass Details

Date: 21 July 2019
Orbit: 457 x 507 km, 97.2° (Epoch: 22 August)

Event Time Altitude Azimuth Distance (km) Brightness Sun altitude
Rises 09:07:59 0° 13° (NNE) 2,595 10.6 -21.4°
Reaches altitude 10° 09:10:03 10° 13° (NNE) 1,714 9.6 -21.0°
Maximum altitude 09:13:45 89° 84° (E) 511 6.5 -20.2°
Enters shadow 09:15:16 35° 191° (S) 840 7.5 -19.9°
